Location: *
(49.6619°S, 177.4603°W)
Time: 05:07:31
(UTC+00:00)

CSL-04 Debris - Pass Details

Date: 31 January 2023
Orbit: 826 x 845 km, 98.8° (Epoch: 01 April)

Event Time Altitude Azimuth Distance (km) Brightness Sun altitude
Rises 08:44:00 0° 166° (SSE) 3,451 7.8 -9.8°
Reaches altitude 10° 08:46:23 10° 165° (SSE) 2,509 7.1 -10.1°
Maximum altitude 08:51:59 89° 243° (WSW) 865 4.3 -10.8°
Drops below altitude 10° 08:57:31 10° 343° (NNW) 2,476 6.4 -11.4°
Sets 08:59:52 0° 342° (NNW) 3,401 7.1 -11.7°
